Location: Gleizolles
(44.4833°N, 6.7667°E)
Time: 15:16:24
(UTC+00:00)

X-37B - Visible Passes

Search period start: 08 March 2021 00:00
Search period end: 18 March 2021 00:00
Orbit: 383 x 391 km, 45.0° (Epoch: 27 February)

Date Brightness Start Highest point End Pass type
(mag) Time Alt. Az. Time Alt. Az. Time Alt. Az.
10 Mar 2.9 18:40:20 10° SSE 18:41:13 12° SSE 18:41:13 12° SSE visible
11 Mar 2.2 19:16:34 10° SW 19:18:22 25° SSW 19:18:22 25° SSW visible
12 Mar 2.3 18:18:49 10° SSW 18:21:16 20° SSE 18:23:05 13° ESE visible
12 Mar 3.1 19:54:22 10° WSW 19:55:23 19° WSW 19:55:23 19° WSW visible
13 Mar 0.9 18:56:07 10° SW 18:59:14 50° SSE 18:59:58 40° ESE visible
14 Mar 1.3 19:34:14 10° W 19:36:45 52° W 19:36:45 52° W visible
15 Mar 0.6 18:35:53 10° WSW 18:39:04 72° SSE 18:41:10 20° E visible
15 Mar 3.5 20:12:32 10° W 20:13:28 18° W 20:13:28 18° W visible
16 Mar 0.6 19:14:08 10° W 19:17:21 79° N 19:17:49 61° ENE visible
17 Mar 0.6 18:15:45 10° W 18:18:57 88° NNW 18:22:08 10° E visible
17 Mar 2.2 19:52:26 10° W 19:54:25 34° W 19:54:25 34° W visible
